Location: ČR
(50.0000°N, 15.0000°E)
Time: 10:44:49
(UTC+02:00)

A-11 Canister half - Pass Details

Date: 23 March 2026
Orbit: 1514 x 1685 km, 47.2° (Epoch: 16 April)

Event Time Altitude Azimuth Distance (km) Brightness Sun altitude
Rises 10:53:16 0° 205° (SSW) 4,757 12.1 38.7°
Reaches altitude 10° 10:56:43 10° 195° (SSW) 3,800 11.9 38.9°
Maximum altitude 11:04:55 32° 137° (SE) 2,522 11.9 39.4°
Drops below altitude 10° 11:13:20 10° 80° (E) 3,920 11.3 39.8°
Sets 11:16:56 0° 71° (ENE) 4,926 11.6 40.0°
